Flag for Mexico Weather past 2 weeks in Matamoros, Tamaulipas, Mexico

Now
64 °F

Clear.


Feels Like: 64 °F
Forecast: 63 / 79 °F
Wind: 9 mph from South

Location: Brownsville / South Padre Island International Airport

Current Time: Mar 29, 2015 at 1:56:48 AM

Latest Report: Mar 29, 2015 at 12:53 AM


Visibility: 10 mi

Pressure: 30.15 "Hg

Humidity: 90%

Dew point: 61 °F

Location of MatamorosLocation

Historic Weather in Matamoros — Graph

°F

Matamoros temperature yesterday

Maximum temperature yesterday: 79 °F (at 1:53 PM)
Minimum temperature yesterday: 53 °F (at 1:53 AM)
Average temperature yesterday: 66 °F

Past Weeks' High & Low Weather Summary

 TemperatureHumidityPressure
High82 °F (Mar 20, 3:53 PM)100% (Mar 14, 9:00 AM)30.25 "Hg (Mar 14, 9:00 AM)
Low53 °F (Mar 27, 7:53 AM)25% (Mar 27, 2:53 PM)29.82 "Hg (Mar 26, 5:53 AM)
Average69 °F85%30.05 "Hg
* Reported Mar 14 12:53 AM — Mar 29 12:53 AM, Matamoros, Weather by CustomWeather, © 2015

Note: Actual official high and low records may vary slightly from our data, if they occured in-between our weather recording intervals... More about our weather records

Advertising

Matamoros weather history for previous 24 hours

 ConditionsComfort  
Time TempWeatherWind HumidityBarometerVisibility
12:53 AM
Sun, Mar 29
64 °FClear.9 mph90%30.15 "Hg10 mi
11:53 PM
Sat, Mar 28
63 °FClear.9 mph93%30.16 "Hg10 mi
10:53 PM64 °FClear.8 mph90%30.16 "Hg10 mi
9:53 PM64 °FClear.9 mph87%30.14 "Hg10 mi
8:53 PM66 °FClear.9 mph81%30.13 "Hg10 mi
7:53 PM69 °FSunny.14 mph73%30.11 "Hg10 mi
6:53 PM72 °FSunny.18 mph64%30.10 "Hg10 mi
5:53 PM75 °FSunny.21 mph54%30.09 "Hg10 mi
4:53 PM78 °FSunny.18 mph46%30.09 "Hg10 mi
3:53 PM79 °FSunny.23 mph36%30.11 "Hg10 mi
2:53 PM79 °FSunny.24 mph35%30.13 "Hg10 mi
1:53 PM79 °FSunny.18 mph45%30.16 "Hg10 mi
12:53 PM78 °FSunny.15 mph42%30.19 "Hg10 mi
11:53 AM77 °FSunny.18 mph44%30.20 "Hg10 mi
10:53 AM73 °FSunny.14 mph59%30.21 "Hg10 mi
9:53 AM68 °FSunny.13 mph76%30.21 "Hg10 mi
8:53 AM61 °FSunny.5 mph90%30.20 "Hg10 mi
7:53 AM53 °FClear.3 mph96%30.18 "Hg7 mi
6:53 AM53 °FClear.3 mph96%30.18 "Hg8 mi
5:53 AM54 °FClear.No wind93%30.17 "Hg10 mi
4:53 AM53 °FClear.5 mph93%30.16 "Hg9 mi
3:53 AM53 °FClear.3 mph93%30.16 "Hg9 mi
2:53 AM53 °FClear.6 mph93%30.18 "Hg9 mi
1:53 AM53 °FClear.5 mph89%30.19 "Hg10 mi
Weather by CustomWeather, © 2015

See weather overviewHow to use our weather pages